Private Wetterstation Wechselburg
Wetterdaten: Freitag, 09.07.2021
Datum Zeit Temp. +2m Bodentemp. Temp.+5cm Temp. Wind Windchill X Diff Temp. Feuchte +2m Feuchte +5cm Luftdruck Regen Wind Richtung Richtung Sonnenschein Taupunkt Windchill Windben
09.07.2021 00:00 16,3 C 21,0 C 16,9 C 17,3 C 17,3 C 1,0 C 88 % 91 % 1016,5 hPa 0,0 l/m 0,0 km/h (0 Bft) NO 45 0 min 14,3 C 17,3 C 0,0 km/h (0 Bft)
09.07.2021 00:05 16,3 C 21,0 C 16,9 C 17,4 C 17,4 C 1,1 C 88 % 91 % 1016,5 hPa 0,0 l/m 0,0 km/h (0 Bft) NO 45 0 min 14,3 C 17,4 C 0,0 km/h (0 Bft)
09.07.2021 00:10 16,3 C 21,0 C 17,0 C 17,4 C 17,4 C 1,1 C 88 % 91 % 1016,5 hPa 0,0 l/m 0,0 km/h (0 Bft) NW 315 0 min 14,3 C 17,4 C 0,0 km/h (0 Bft)
09.07.2021 00:15 16,3 C 21,0 C 17,0 C 17,4 C 17,4 C 1,1 C 88 % 91 % 1016,4 hPa 0,0 l/m 0,0 km/h (0 Bft) N-NO 22 0 min 14,3 C 17,4 C 0,0 km/h (0 Bft)
09.07.2021 00:20 16,3 C 21,0 C 17,0 C 17,5 C 17,5 C 1,2 C 88 % 91 % 1016,4 hPa 0,0 l/m 0,0 km/h (0 Bft) N-NO 22 0 min 14,3 C 17,5 C 0,0 km/h (0 Bft)
09.07.2021 00:25 16,3 C 21,0 C 17,0 C 17,5 C 17,5 C 1,2 C 88 % 91 % 1016,4 hPa 0,0 l/m 0,0 km/h (0 Bft) N-NO 22 0 min 14,3 C 17,5 C 0,0 km/h (0 Bft)
09.07.2021 00:30 16,3 C 21,0 C 17,0 C 17,6 C 17,6 C 1,3 C 88 % 91 % 1016,4 hPa 0,0 l/m 0,2 km/h (0 Bft) NW 315 0 min 14,3 C 17,6 C 0,0 km/h (0 Bft)
09.07.2021 00:35 16,3 C 21,0 C 17,1 C 17,6 C 17,6 C 1,3 C 88 % 91 % 1016,8 hPa 0,0 l/m 0,3 km/h (0 Bft) W 270 0 min 14,3 C 17,6 C 0,0 km/h (0 Bft)
09.07.2021 00:40 16,3 C 21,0 C 17,1 C 17,6 C 17,6 C 1,3 C 88 % 91 % 1016,8 hPa 0,0 l/m 0,3 km/h (0 Bft) NW 315 0 min 14,3 C 17,6 C 1,9 km/h (1 Bft)
09.07.2021 00:45 16,3 C 21,0 C 17,1 C 17,6 C 17,6 C 1,3 C 88 % 91 % 1016,8 hPa 0,0 l/m 0,0 km/h (0 Bft) SO 135 0 min 14,3 C 17,6 C 0,0 km/h (0 Bft)
09.07.2021 00:50 16,2 C 21,0 C 17,1 C 17,6 C 17,6 C 1,4 C 88 % 91 % 1016,8 hPa 0,0 l/m 0,2 km/h (0 Bft) W-NW 292 0 min 14,2 C 17,6 C 0,0 km/h (0 Bft)
09.07.2021 00:55 16,2 C 21,0 C 17,1 C 17,7 C 17,7 C 1,5 C 88 % 91 % 1016,4 hPa 0,0 l/m 0,2 km/h (0 Bft) W-SW 247 0 min 14,2 C 17,7 C 0,0 km/h (0 Bft)
09.07.2021 01:00 16,2 C 21,0 C 17,1 C 17,7 C 17,7 C 1,5 C 88 % 91 % 1016,4 hPa 0,0 l/m 0,2 km/h (0 Bft) W-NW 292 0 min 14,2 C 17,7 C 0,0 km/h (0 Bft)
09.07.2021 01:05 16,2 C 21,0 C 17,1 C 17,7 C 17,7 C 1,5 C 88 % 91 % 1016,4 hPa 0,0 l/m 0,2 km/h (0 Bft) W 270 0 min 14,2 C 17,7 C 0,0 km/h (0 Bft)
09.07.2021 01:10 16,3 C 21,0 C 17,1 C 17,7 C 17,7 C 1,4 C 88 % 91 % 1016,4 hPa 0,0 l/m 0,2 km/h (0 Bft) SO 135 0 min 14,3 C 17,7 C 0,0 km/h (0 Bft)
09.07.2021 01:15 16,3 C 21,0 C 17,1 C 17,6 C 17,6 C 1,3 C 88 % 91 % 1016,2 hPa 0,0 l/m 0,2 km/h (0 Bft) W 270 0 min 14,3 C 17,6 C 1,8 km/h (1 Bft)
09.07.2021 01:20 16,3 C 21,0 C 17,1 C 17,6 C 17,6 C 1,3 C 88 % 91 % 1016,2 hPa 0,0 l/m 0,2 km/h (0 Bft) NW 315 0 min 14,3 C 17,6 C 0,0 km/h (0 Bft)
09.07.2021 01:25 16,3 C 21,0 C 17,0 C 17,6 C 17,6 C 1,3 C 88 % 91 % 1016,2 hPa 0,0 l/m 0,2 km/h (0 Bft) NW 315 0 min 14,3 C 17,6 C 2,3 km/h (1 Bft)
09.07.2021 01:30 16,2 C 21,0 C 17,1 C 17,6 C 17,6 C 1,4 C 88 % 91 % 1016,2 hPa 0,0 l/m 0,0 km/h (0 Bft) W-SW 247 0 min 14,2 C 17,6 C 0,0 km/h (0 Bft)
09.07.2021 01:35 16,2 C 21,0 C 17,0 C 17,6 C 17,6 C 1,4 C 88 % 91 % 1015,8 hPa 0,0 l/m 0,3 km/h (0 Bft) W 270 0 min 14,2 C 17,6 C 3,4 km/h (1 Bft)
09.07.2021 01:40 16,1 C 21,0 C 17,0 C 17,5 C 17,5 C 1,4 C 88 % 91 % 1015,8 hPa 0,0 l/m 0,3 km/h (0 Bft) W-SW 247 0 min 14,1 C 17,5 C 0,0 km/h (0 Bft)
09.07.2021 01:45 16,1 C 21,0 C 17,0 C 17,6 C 17,6 C 1,5 C 88 % 91 % 1015,8 hPa 0,0 l/m 0,2 km/h (0 Bft) SW 225 0 min 14,1 C 17,6 C 0,0 km/h (0 Bft)
09.07.2021 01:50 16,1 C 21,0 C 17,0 C 17,6 C 17,6 C 1,5 C 88 % 92 % 1015,8 hPa 0,0 l/m 0,0 km/h (0 Bft) N-NO 22 0 min 14,1 C 17,6 C 0,0 km/h (0 Bft)
09.07.2021 01:55 16,1 C 21,0 C 17,0 C 17,5 C 17,5 C 1,4 C 88 % 92 % 1016,1 hPa 0,0 l/m 0,0 km/h (0 Bft) NW 315 0 min 14,1 C 17,5 C 3,7 km/h (1 Bft)
09.07.2021 02:00 16,0 C 21,0 C 16,9 C 17,5 C 17,5 C 1,5 C 88 % 92 % 1016,1 hPa 0,0 l/m 0,2 km/h (0 Bft) NW 315 0 min 14,0 C 17,5 C 0,0 km/h (0 Bft)
09.07.2021 02:05 16,1 C 21,0 C 16,9 C 17,4 C 17,4 C 1,3 C 88 % 92 % 1016,1 hPa 0,0 l/m 0,5 km/h (0 Bft) NW 315 0 min 14,1 C 17,4 C 2,7 km/h (1 Bft)
09.07.2021 02:10 16,0 C 21,0 C 16,9 C 17,4 C 17,4 C 1,4 C 88 % 92 % 1016,1 hPa 0,0 l/m 0,2 km/h (0 Bft) O 90 0 min 14,0 C 17,4 C 0,0 km/h (0 Bft)
09.07.2021 02:15 16,0 C 21,0 C 16,9 C 17,4 C 17,4 C 1,4 C 88 % 92 % 1015,8 hPa 0,0 l/m 0,2 km/h (0 Bft) NW 315 0 min 14,0 C 17,4 C 0,0 km/h (0 Bft)
09.07.2021 02:20 16,0 C 21,0 C 16,9 C 17,4 C 17,4 C 1,4 C 88 % 92 % 1015,8 hPa 0,0 l/m 0,2 km/h (0 Bft) N-NW 337 0 min 14,0 C 17,4 C 0,0 km/h (0 Bft)
09.07.2021 02:25 15,9 C 21,0 C 16,8 C 17,2 C 17,2 C 1,3 C 88 % 92 % 1015,8 hPa 0,0 l/m 0,2 km/h (0 Bft) N-NW 337 0 min 13,9 C 17,2 C 0,0 km/h (0 Bft)
09.07.2021 02:30 15,9 C 21,0 C 16,8 C 17,1 C 17,1 C 1,2 C 88 % 92 % 1015,8 hPa 0,0 l/m 0,0 km/h (0 Bft) NW 315 0 min 13,9 C 17,1 C 0,0 km/h (0 Bft)
09.07.2021 02:35 15,8 C 21,0 C 16,8 C 17,0 C 17,0 C 1,2 C 88 % 92 % 1016,0 hPa 0,0 l/m 0,0 km/h (0 Bft) O-NO 67 0 min 13,8 C 17,0 C 0,0 km/h (0 Bft)
09.07.2021 02:40 15,8 C 21,0 C 16,7 C 16,9 C 16,9 C 1,1 C 88 % 92 % 1016,0 hPa 0,0 l/m 0,0 km/h (0 Bft) O-NO 67 0 min 13,8 C 16,9 C 0,0 km/h (0 Bft)
09.07.2021 02:45 15,9 C 21,0 C 16,7 C 16,8 C 16,8 C 0,9 C 88 % 92 % 1016,0 hPa 0,0 l/m 0,0 km/h (0 Bft) W-SW 247 0 min 13,9 C 16,8 C 0,0 km/h (0 Bft)
09.07.2021 02:50 15,9 C 21,0 C 16,7 C 16,8 C 16,8 C 0,9 C 88 % 92 % 1016,0 hPa 0,0 l/m 0,0 km/h (0 Bft) N 360 0 min 13,9 C 16,8 C 0,0 km/h (0 Bft)
09.07.2021 02:55 15,8 C 21,0 C 16,6 C 16,8 C 16,8 C 1,0 C 88 % 91 % 1015,6 hPa 0,0 l/m 0,0 km/h (0 Bft) N-NW 337 0 min 13,8 C 16,8 C 0,0 km/h (0 Bft)
09.07.2021 03:00 15,8 C 21,0 C 16,6 C 16,8 C 16,8 C 1,0 C 88 % 91 % 1015,6 hPa 0,0 l/m 0,0 km/h (0 Bft) S-SO 157 0 min 13,8 C 16,8 C 0,0 km/h (0 Bft)
09.07.2021 03:05 15,7 C 21,0 C 16,6 C 16,8 C 16,8 C 1,1 C 88 % 91 % 1015,6 hPa 0,0 l/m 0,0 km/h (0 Bft) O 90 0 min 13,7 C 16,8 C 0,0 km/h (0 Bft)
09.07.2021 03:10 15,7 C 21,0 C 16,6 C 16,8 C 16,8 C 1,1 C 88 % 91 % 1015,6 hPa 0,0 l/m 0,0 km/h (0 Bft) O 90 0 min 13,7 C 16,8 C 0,0 km/h (0 Bft)
09.07.2021 03:15 15,6 C 21,0 C 16,6 C 16,8 C 16,8 C 1,2 C 88 % 91 % 1015,6 hPa 0,0 l/m 0,0 km/h (0 Bft) O 90 0 min 13,6 C 16,8 C 0,0 km/h (0 Bft)
09.07.2021 03:20 15,7 C 21,0 C 16,5 C 16,8 C 16,8 C 1,1 C 88 % 91 % 1015,6 hPa 0,0 l/m 0,0 km/h (0 Bft) O-NO 67 0 min 13,7 C 16,8 C 0,0 km/h (0 Bft)
09.07.2021 03:25 15,6 C 21,0 C 16,5 C 16,8 C 16,8 C 1,2 C 88 % 91 % 1015,6 hPa 0,7 l/m 0,0 km/h (0 Bft) W-NW 292 0 min 13,6 C 16,8 C 0,0 km/h (0 Bft)
09.07.2021 03:30 15,6 C 20,9 C 16,5 C 16,7 C 16,7 C 1,1 C 88 % 91 % 1015,6 hPa 0,7 l/m 0,0 km/h (0 Bft) W 270 0 min 13,6 C 16,7 C 0,0 km/h (0 Bft)
09.07.2021 03:35 15,7 C 20,9 C 16,4 C 16,7 C 16,7 C 1,0 C 88 % 91 % 1015,4 hPa 0,0 l/m 0,0 km/h (0 Bft) W 270 0 min 13,7 C 16,7 C 0,0 km/h (0 Bft)
09.07.2021 03:40 15,7 C 20,9 C 16,4 C 16,7 C 16,7 C 1,0 C 88 % 91 % 1015,4 hPa 0,0 l/m 0,0 km/h (0 Bft) W 270 0 min 13,7 C 16,7 C 0,0 km/h (0 Bft)
09.07.2021 03:45 15,6 C 20,9 C 16,4 C 16,7 C 16,7 C 1,1 C 88 % 91 % 1015,4 hPa 0,7 l/m 0,0 km/h (0 Bft) W 270 0 min 13,6 C 16,7 C 0,0 km/h (0 Bft)
09.07.2021 03:50 15,6 C 20,9 C 16,4 C 16,7 C 16,7 C 1,1 C 88 % 91 % 1015,4 hPa 0,0 l/m 0,0 km/h (0 Bft) SO 135 0 min 13,6 C 16,7 C 0,0 km/h (0 Bft)
09.07.2021 03:55 15,6 C 20,9 C 16,4 C 16,7 C 16,7 C 1,1 C 88 % 91 % 1015,4 hPa 0,7 l/m 0,0 km/h (0 Bft) SO 135 0 min 13,6 C 16,7 C 0,0 km/h (0 Bft)
09.07.2021 04:00 15,6 C 20,9 C 16,4 C 16,7 C 16,7 C 1,1 C 88 % 91 % 1015,4 hPa 0,0 l/m 0,0 km/h (0 Bft) S 180 0 min 13,6 C 16,7 C 0,0 km/h (0 Bft)
09.07.2021 04:05 15,5 C 21,2 C 16,4 C 16,7 C 16,7 C 1,2 C 88 % 91 % 1015,4 hPa 0,0 l/m 0,0 km/h (0 Bft) N-NW 337 0 min 13,5 C 16,7 C 0,0 km/h (0 Bft)
09.07.2021 04:10 15,5 C 21,2 C 16,3 C 16,7 C 16,7 C 1,2 C 88 % 91 % 1015,4 hPa 0,7 l/m 0,0 km/h (0 Bft) O-NO 67 0 min 13,5 C 16,7 C 0,0 km/h (0 Bft)
09.07.2021 04:15 15,5 C 21,2 C 16,3 C 16,7 C 16,7 C 1,2 C 88 % 91 % 1015,8 hPa 0,0 l/m 0,0 km/h (0 Bft) O-NO 67 0 min 13,5 C 16,7 C 0,0 km/h (0 Bft)
09.07.2021 04:20 15,5 C 21,2 C 16,3 C 16,7 C 16,7 C 1,2 C 88 % 91 % 1015,8 hPa 0,7 l/m 0,0 km/h (0 Bft) O-NO 67 0 min 13,5 C 16,7 C 0,0 km/h (0 Bft)
09.07.2021 04:25 15,5 C 21,2 C 16,3 C 16,7 C 16,7 C 1,2 C 88 % 91 % 1015,8 hPa 0,7 l/m 0,0 km/h (0 Bft) O-NO 67 0 min 13,5 C 16,7 C 0,0 km/h (0 Bft)
09.07.2021 04:30 15,5 C 21,2 C 16,3 C 16,7 C 16,7 C 1,2 C 88 % 91 % 1015,8 hPa 0,0 l/m 0,0 km/h (0 Bft) W 270 0 min 13,5 C 16,7 C 0,0 km/h (0 Bft)
09.07.2021 04:35 15,5 C 21,2 C 16,3 C 16,7 C 16,7 C 1,2 C 88 % 91 % 1014,9 hPa 0,7 l/m 0,2 km/h (0 Bft) NW 315 0 min 13,5 C 16,7 C 0,0 km/h (0 Bft)
09.07.2021 04:40 15,5 C 21,2 C 16,3 C 16,6 C 16,6 C 1,1 C 88 % 91 % 1014,9 hPa 0,7 l/m 0,2 km/h (0 Bft) W 270 0 min 13,5 C 16,6 C 0,0 km/h (0 Bft)
09.07.2021 04:45 15,5 C 21,2 C 16,3 C 16,6 C 16,6 C 1,1 C 88 % 91 % 1014,9 hPa 0,7 l/m 0,2 km/h (0 Bft) NW 315 0 min 13,5 C 16,6 C 0,0 km/h (0 Bft)
09.07.2021 04:50 15,5 C 21,2 C 16,3 C 16,6 C 16,6 C 1,1 C 88 % 91 % 1014,9 hPa 0,0 l/m 0,2 km/h (0 Bft) W-NW 292 0 min 13,5 C 16,6 C 0,0 km/h (0 Bft)
09.07.2021 04:55 15,5 C 21,2 C 16,3 C 16,6 C 16,6 C 1,1 C 88 % 91 % 1013,8 hPa 0,0 l/m 0,2 km/h (0 Bft) NW 315 0 min 13,5 C 16,6 C 4,2 km/h (1 Bft)
09.07.2021 05:00 15,5 C 21,2 C 16,3 C 16,6 C 16,6 C 1,1 C 88 % 91 % 1013,8 hPa 0,0 l/m 0,2 km/h (0 Bft) N-NW 337 0 min 13,5 C 16,6 C 1,8 km/h (1 Bft)
09.07.2021 05:05 15,5 C 21,2 C 16,3 C 16,6 C 16,6 C 1,1 C 88 % 91 % 1013,8 hPa 0,0 l/m 1,0 km/h (0 Bft) N-NW 337 0 min 13,5 C 16,6 C 5,8 km/h (2 Bft)
09.07.2021 05:10 15,4 C 21,2 C 16,3 C 16,6 C 16,6 C 1,2 C 88 % 91 % 1013,8 hPa 0,0 l/m 1,8 km/h (1 Bft) W-SW 247 0 min 13,4 C 16,6 C 0,0 km/h (0 Bft)
09.07.2021 05:15 15,4 C 21,2 C 16,3 C 16,6 C 16,6 C 1,2 C 88 % 91 % 1013,4 hPa 0,0 l/m 1,8 km/h (1 Bft) N-NW 337 0 min 13,4 C 16,6 C 1,9 km/h (1 Bft)
09.07.2021 05:20 15,4 C 21,2 C 16,3 C 16,6 C 16,6 C 1,2 C 88 % 91 % 1013,4 hPa 0,0 l/m 1,8 km/h (1 Bft) S 180 5 min 13,4 C 16,6 C 2,3 km/h (1 Bft)
09.07.2021 05:25 15,3 C 21,2 C 16,3 C 16,6 C 16,6 C 1,3 C 88 % 91 % 1013,4 hPa 0,0 l/m 1,4 km/h (1 Bft) S 180 5 min 13,3 C 16,6 C 6,1 km/h (2 Bft)
09.07.2021 05:30 15,4 C 21,2 C 16,3 C 16,6 C 16,6 C 1,2 C 88 % 91 % 1013,4 hPa 0,0 l/m 0,8 km/h (0 Bft) NW 315 5 min 13,4 C 16,6 C 3,5 km/h (1 Bft)
09.07.2021 05:35 15,4 C 21,2 C 16,3 C 16,6 C 16,6 C 1,2 C 88 % 91 % 1013,8 hPa 0,0 l/m 0,8 km/h (0 Bft) W-SW 247 5 min 13,4 C 16,6 C 0,0 km/h (0 Bft)
09.07.2021 05:40 15,3 C 21,2 C 16,3 C 16,6 C 16,6 C 1,3 C 88 % 91 % 1013,8 hPa 0,0 l/m 0,8 km/h (0 Bft) S-SO 157 5 min 13,3 C 16,6 C 0,0 km/h (0 Bft)
09.07.2021 05:45 15,4 C 21,2 C 16,4 C 16,6 C 16,6 C 1,2 C 88 % 91 % 1013,8 hPa 0,0 l/m 0,0 km/h (0 Bft) S-SW 202 5 min 13,4 C 16,6 C 0,0 km/h (0 Bft)
09.07.2021 05:50 15,5 C 21,2 C 16,3 C 16,6 C 16,6 C 1,1 C 88 % 91 % 1013,8 hPa 0,0 l/m 0,0 km/h (0 Bft) SW 225 5 min 13,5 C 16,6 C 0,0 km/h (0 Bft)
09.07.2021 05:55 15,5 C 21,2 C 16,4 C 16,7 C 16,7 C 1,2 C 88 % 91 % 1014,2 hPa 0,0 l/m 0,0 km/h (0 Bft) O-NO 67 5 min 13,5 C 16,7 C 0,0 km/h (0 Bft)
09.07.2021 06:00 15,5 C 21,2 C 16,3 C 16,7 C 16,7 C 1,2 C 88 % 91 % 1014,2 hPa 0,7 l/m 0,0 km/h (0 Bft) O-NO 67 5 min 13,5 C 16,7 C 0,0 km/h (0 Bft)
09.07.2021 06:05 15,5 C 21,2 C 16,4 C 16,7 C 16,7 C 1,2 C 88 % 91 % 1014,2 hPa 4,1 l/m 0,6 km/h (0 Bft) W 270 5 min 13,5 C 16,7 C 1,8 km/h (1 Bft)
09.07.2021 06:10 15,5 C 21,2 C 16,3 C 16,7 C 16,7 C 1,2 C 88 % 91 % 1014,2 hPa 0,7 l/m 1,0 km/h (0 Bft) W-NW 292 0 min 13,5 C 16,7 C 0,0 km/h (0 Bft)
09.07.2021 06:15 15,5 C 21,2 C 16,3 C 16,7 C 16,7 C 1,2 C 88 % 91 % 1013,8 hPa 0,7 l/m 0,6 km/h (0 Bft) W-SW 247 0 min 13,5 C 16,7 C 0,0 km/h (0 Bft)
09.07.2021 06:20 15,5 C 21,2 C 16,4 C 16,7 C 16,7 C 1,2 C 88 % 91 % 1013,8 hPa 0,0 l/m 0,5 km/h (0 Bft) NW 315 0 min 13,5 C 16,7 C 0,0 km/h (0 Bft)
09.07.2021 06:25 15,5 C 21,2 C 16,3 C 16,7 C 16,7 C 1,2 C 88 % 91 % 1013,8 hPa 0,7 l/m 0,3 km/h (0 Bft) W-NW 292 0 min 13,5 C 16,7 C 0,0 km/h (0 Bft)
09.07.2021 06:30 15,5 C 21,2 C 16,4 C 16,7 C 16,7 C 1,2 C 88 % 91 % 1013,8 hPa 0,0 l/m 0,2 km/h (0 Bft) W-SW 247 0 min 13,5 C 16,7 C 2,3 km/h (1 Bft)
09.07.2021 06:35 15,5 C 21,2 C 16,4 C 16,7 C 16,7 C 1,2 C 88 % 91 % 1013,8 hPa 0,0 l/m 0,0 km/h (0 Bft) N-NO 22 0 min 13,5 C 16,7 C 0,0 km/h (0 Bft)
09.07.2021 06:40 15,5 C 21,2 C 16,4 C 16,8 C 16,8 C 1,3 C 88 % 91 % 1013,8 hPa 0,0 l/m 0,2 km/h (0 Bft) NW 315 0 min 13,5 C 16,8 C 0,0 km/h (0 Bft)
09.07.2021 06:45 15,6 C 21,2 C 16,4 C 16,8 C 16,8 C 1,2 C 88 % 91 % 1013,8 hPa 0,0 l/m 0,2 km/h (0 Bft) W 270 0 min 13,6 C 16,8 C 0,0 km/h (0 Bft)
09.07.2021 06:50 15,6 C 21,2 C 16,4 C 16,8 C 16,8 C 1,2 C 88 % 91 % 1013,8 hPa 0,0 l/m 0,5 km/h (0 Bft) N-NW 337 0 min 13,6 C 16,8 C 2,9 km/h (1 Bft)
09.07.2021 06:55 15,6 C 21,2 C 16,4 C 16,8 C 16,8 C 1,2 C 89 % 91 % 1013,6 hPa 0,7 l/m 0,8 km/h (0 Bft) SW 225 0 min 13,8 C 16,8 C 0,0 km/h (0 Bft)
09.07.2021 07:00 15,6 C 21,2 C 16,4 C 16,8 C 16,8 C 1,2 C 88 % 91 % 1013,6 hPa 0,0 l/m 0,6 km/h (0 Bft) S 180 0 min 13,6 C 16,8 C 0,0 km/h (0 Bft)
09.07.2021 07:05 15,7 C 21,2 C 16,5 C 16,8 C 16,8 C 1,1 C 88 % 91 % 1013,6 hPa 0,0 l/m 0,3 km/h (0 Bft) W-SW 247 0 min 13,7 C 16,8 C 0,0 km/h (0 Bft)
09.07.2021 07:10 15,6 C 21,2 C 16,5 C 16,8 C 16,8 C 1,2 C 89 % 91 % 1013,6 hPa 0,0 l/m 0,3 km/h (0 Bft) NW 315 0 min 13,8 C 16,8 C 0,0 km/h (0 Bft)
09.07.2021 07:15 15,6 C 21,2 C 16,5 C 16,8 C 16,8 C 1,2 C 89 % 91 % 1013,7 hPa 0,0 l/m 0,0 km/h (0 Bft) NW 315 0 min 13,8 C 16,8 C 0,0 km/h (0 Bft)
09.07.2021 07:20 15,6 C 21,2 C 16,4 C 16,8 C 16,8 C 1,2 C 89 % 91 % 1013,7 hPa 0,0 l/m 0,2 km/h (0 Bft) O-SO 112 0 min 13,8 C 16,8 C 0,0 km/h (0 Bft)
09.07.2021 07:25 15,6 C 21,2 C 16,4 C 16,8 C 16,8 C 1,2 C 89 % 91 % 1013,7 hPa 0,0 l/m 0,5 km/h (0 Bft) SW 225 0 min 13,8 C 16,8 C 6,3 km/h (2 Bft)
09.07.2021 07:30 15,6 C 21,2 C 16,4 C 16,8 C 16,8 C 1,2 C 88 % 91 % 1013,7 hPa 0,0 l/m 1,1 km/h (1 Bft) SW 225 0 min 13,6 C 16,8 C 1,8 km/h (1 Bft)
09.07.2021 07:35 15,6 C 21,2 C 16,4 C 16,9 C 16,9 C 1,3 C 88 % 91 % 1013,8 hPa 0,0 l/m 1,1 km/h (1 Bft) W-SW 247 0 min 13,6 C 16,9 C 1,6 km/h (1 Bft)
09.07.2021 07:40 15,7 C 21,2 C 16,5 C 17,0 C 17,0 C 1,3 C 89 % 91 % 1013,8 hPa 0,0 l/m 0,6 km/h (0 Bft) O-NO 67 0 min 13,9 C 17,0 C 1,6 km/h (1 Bft)
09.07.2021 07:45 15,7 C 21,3 C 16,5 C 17,0 C 17,0 C 1,3 C 89 % 91 % 1013,8 hPa 0,7 l/m 1,3 km/h (1 Bft) S-SW 202 0 min 13,9 C 17,0 C 2,9 km/h (1 Bft)
09.07.2021 07:50 15,7 C 21,3 C 16,5 C 17,0 C 17,0 C 1,3 C 89 % 91 % 1013,8 hPa 0,0 l/m 1,3 km/h (1 Bft) NW 315 0 min 13,9 C 17,0 C 1,6 km/h (1 Bft)
09.07.2021 07:55 15,8 C 21,3 C 16,5 C 17,1 C 17,1 C 1,3 C 89 % 91 % 1013,3 hPa 0,0 l/m 0,8 km/h (0 Bft) NW 315 0 min 14,0 C 17,1 C 0,0 km/h (0 Bft)
09.07.2021 08:00 15,8 C 21,3 C 16,6 C 17,1 C 17,1 C 1,3 C 89 % 91 % 1013,3 hPa 0,0 l/m 0,8 km/h (0 Bft) W 270 0 min 14,0 C 17,1 C 0,0 km/h (0 Bft)
09.07.2021 08:05 15,9 C 21,3 C 16,6 C 17,2 C 17,2 C 1,3 C 89 % 91 % 1013,3 hPa 0,0 l/m 0,8 km/h (0 Bft) NW 315 0 min 14,1 C 17,2 C 0,0 km/h (0 Bft)
09.07.2021 08:10 15,9 C 21,3 C 16,6 C 17,3 C 17,3 C 1,4 C 89 % 91 % 1013,3 hPa 0,0 l/m 0,3 km/h (0 Bft) SW 225 0 min 14,1 C 17,3 C 0,0 km/h (0 Bft)
09.07.2021 08:15 15,9 C 21,3 C 16,6 C 17,2 C 17,2 C 1,3 C 89 % 91 % 1013,3 hPa 0,0 l/m 0,8 km/h (0 Bft) S-SW 202 0 min 14,1 C 17,2 C 0,0 km/h (0 Bft)
09.07.2021 08:20 15,9 C 21,3 C 16,6 C 17,2 C 17,2 C 1,3 C 89 % 91 % 1013,3 hPa 0,0 l/m 1,1 km/h (1 Bft) NW 315 0 min 14,1 C 17,2 C 1,8 km/h (1 Bft)
09.07.2021 08:25 16,0 C 21,3 C 16,7 C 17,3 C 17,3 C 1,3 C 89 % 91 % 1013,3 hPa 0,0 l/m 0,5 km/h (0 Bft) S 180 0 min 14,2 C 17,3 C 0,0 km/h (0 Bft)
09.07.2021 08:30 15,9 C 21,3 C 16,6 C 17,2 C 17,2 C 1,3 C 89 % 91 % 1013,3 hPa 0,0 l/m 0,5 km/h (0 Bft) W 270 0 min 14,1 C 17,2 C 1,8 km/h (1 Bft)
09.07.2021 08:35 15,9 C 21,3 C 16,6 C 17,2 C 17,2 C 1,3 C 89 % 91 % 1013,4 hPa 0,0 l/m 0,3 km/h (0 Bft) SO 135 0 min 14,1 C 17,2 C 0,0 km/h (0 Bft)
09.07.2021 08:40 15,9 C 21,3 C 16,6 C 17,2 C 17,2 C 1,3 C 89 % 91 % 1013,4 hPa 0,0 l/m 0,2 km/h (0 Bft) N-NO 22 0 min 14,1 C 17,2 C 0,0 km/h (0 Bft)
09.07.2021 08:45 16,0 C 21,3 C 16,7 C 17,3 C 17,3 C 1,3 C 89 % 91 % 1013,4 hPa 0,0 l/m 0,2 km/h (0 Bft) SW 225 0 min 14,2 C 17,3 C 3,1 km/h (1 Bft)
09.07.2021 08:50 16,1 C 21,3 C 16,7 C 17,3 C 17,3 C 1,2 C 89 % 91 % 1013,4 hPa 0,0 l/m 0,2 km/h (0 Bft) NO 45 0 min 14,3 C 17,3 C 0,0 km/h (0 Bft)
09.07.2021 08:55 16,1 C 21,3 C 16,7 C 17,4 C 17,4 C 1,3 C 89 % 91 % 1013,4 hPa 0,0 l/m 0,2 km/h (0 Bft) S-SW 202 0 min 14,3 C 17,4 C 0,0 km/h (0 Bft)
09.07.2021 09:00 16,0 C 21,3 C 16,7 C 17,4 C 17,4 C 1,4 C 89 % 91 % 1013,4 hPa 0,0 l/m 0,0 km/h (0 Bft) SW 225 0 min 14,2 C 17,4 C 0,0 km/h (0 Bft)
09.07.2021 09:05 16,1 C 21,3 C 16,7 C 17,4 C 17,4 C 1,3 C 89 % 91 % 1013,4 hPa 0,0 l/m 0,3 km/h (0 Bft) S-SO 157 0 min 14,3 C 17,4 C 0,0 km/h (0 Bft)
09.07.2021 09:10 16,1 C 21,3 C 16,8 C 17,4 C 17,4 C 1,3 C 89 % 91 % 1013,4 hPa 0,0 l/m 0,3 km/h (0 Bft) NW 315 0 min 14,3 C 17,4 C 0,0 km/h (0 Bft)
09.07.2021 09:15 16,2 C 21,3 C 16,8 C 17,4 C 17,4 C 1,2 C 89 % 91 % 1013,3 hPa 0,0 l/m 0,2 km/h (0 Bft) NW 315 0 min 14,4 C 17,4 C 1,6 km/h (1 Bft)
09.07.2021 09:20 16,1 C 21,3 C 16,8 C 17,4 C 17,4 C 1,3 C 89 % 91 % 1013,3 hPa 0,0 l/m 0,2 km/h (0 Bft) NO 45 0 min 14,3 C 17,4 C 0,0 km/h (0 Bft)
09.07.2021 09:25 16,1 C 21,3 C 16,8 C 17,4 C 17,4 C 1,3 C 89 % 91 % 1013,3 hPa 0,0 l/m 0,2 km/h (0 Bft) O-NO 67 0 min 14,3 C 17,4 C 0,0 km/h (0 Bft)
09.07.2021 09:30 16,3 C 21,3 C 16,8 C 17,5 C 17,5 C 1,2 C 89 % 91 % 1013,3 hPa 0,0 l/m 0,0 km/h (0 Bft) SO 135 0 min 14,5 C 17,5 C 0,0 km/h (0 Bft)
09.07.2021 09:35 16,3 C 21,3 C 16,9 C 17,5 C 17,5 C 1,2 C 89 % 91 % 1013,1 hPa 0,0 l/m 0,2 km/h (0 Bft) S 180 0 min 14,5 C 17,5 C 0,0 km/h (0 Bft)
09.07.2021 09:40 16,3 C 21,3 C 16,9 C 17,6 C 17,6 C 1,3 C 89 % 90 % 1013,1 hPa 0,0 l/m 0,2 km/h (0 Bft) O-SO 112 0 min 14,5 C 17,6 C 0,0 km/h (0 Bft)
09.07.2021 09:45 16,3 C 21,4 C 16,9 C 17,7 C 17,7 C 1,4 C 89 % 90 % 1013,1 hPa 0,0 l/m 0,0 km/h (0 Bft) N-NW 337 0 min 14,5 C 17,7 C 0,0 km/h (0 Bft)
09.07.2021 09:50 16,4 C 21,4 C 17,0 C 17,7 C 17,7 C 1,3 C 89 % 90 % 1013,1 hPa 0,0 l/m 0,0 km/h (0 Bft) O-SO 112 0 min 14,6 C 17,7 C 0,0 km/h (0 Bft)
09.07.2021 09:55 16,3 C 21,2 C 17,0 C 17,7 C 17,7 C 1,4 C 89 % 90 % 1013,1 hPa 0,0 l/m 0,0 km/h (0 Bft) O-NO 67 0 min 14,5 C 17,7 C 0,0 km/h (0 Bft)
09.07.2021 10:00 16,5 C 21,2 C 17,0 C 17,7 C 17,7 C 1,2 C 89 % 90 % 1013,1 hPa 0,0 l/m 0,0 km/h (0 Bft) W-NW 292 0 min 14,7 C 17,7 C 0,0 km/h (0 Bft)
09.07.2021 10:05 16,5 C 21,2 C 17,1 C 17,8 C 17,8 C 1,3 C 89 % 91 % 1013,1 hPa 0,0 l/m 0,3 km/h (0 Bft) W 270 0 min 14,7 C 17,8 C 0,0 km/h (0 Bft)
09.07.2021 10:10 16,5 C 21,2 C 17,1 C 18,0 C 18,0 C 1,5 C 89 % 91 % 1013,1 hPa 0,0 l/m 0,3 km/h (0 Bft) W 270 0 min 14,7 C 18,0 C 0,0 km/h (0 Bft)
09.07.2021 10:15 16,5 C 21,2 C 17,1 C 18,1 C 18,1 C 1,6 C 89 % 91 % 1012,8 hPa 0,0 l/m 0,0 km/h (0 Bft) S-SO 157 0 min 14,7 C 18,1 C 0,0 km/h (0 Bft)
09.07.2021 10:20 16,7 C 21,2 C 17,1 C 18,1 C 18,1 C 1,4 C 89 % 91 % 1012,8 hPa 0,0 l/m 0,2 km/h (0 Bft) N 360 0 min 14,9 C 18,1 C 1,6 km/h (1 Bft)
09.07.2021 10:25 16,6 C 21,2 C 17,1 C 17,9 C 17,9 C 1,3 C 89 % 91 % 1012,8 hPa 0,0 l/m 0,5 km/h (0 Bft) NO 45 0 min 14,8 C 17,9 C 1,6 km/h (1 Bft)
09.07.2021 10:30 16,7 C 21,2 C 17,1 C 17,9 C 17,9 C 1,2 C 89 % 90 % 1012,8 hPa 0,0 l/m 0,3 km/h (0 Bft) S-SW 202 0 min 14,9 C 17,9 C 0,0 km/h (0 Bft)
09.07.2021 10:35 16,6 C 21,2 C 17,2 C 17,8 C 17,8 C 1,2 C 89 % 90 % 1012,8 hPa 0,0 l/m 0,2 km/h (0 Bft) S 180 0 min 14,8 C 17,8 C 0,0 km/h (0 Bft)
09.07.2021 10:40 16,7 C 21,2 C 17,2 C 17,9 C 17,9 C 1,2 C 89 % 91 % 1012,8 hPa 0,7 l/m 0,0 km/h (0 Bft) W-SW 247 0 min 14,9 C 17,9 C 0,0 km/h (0 Bft)
09.07.2021 10:45 16,6 C 21,2 C 17,1 C 17,9 C 17,9 C 1,3 C 89 % 91 % 1012,8 hPa 0,0 l/m 0,0 km/h (0 Bft) SW 225 0 min 14,8 C 17,9 C 0,0 km/h (0 Bft)
09.07.2021 10:50 16,6 C 21,2 C 17,1 C 17,8 C 17,8 C 1,2 C 89 % 91 % 1012,8 hPa 0,0 l/m 0,0 km/h (0 Bft) SO 135 0 min 14,8 C 17,8 C 0,0 km/h (0 Bft)
09.07.2021 10:55 16,5 C 21,2 C 17,0 C 17,7 C 17,7 C 1,2 C 89 % 91 % 1012,8 hPa 0,0 l/m 0,0 km/h (0 Bft) O-SO 112 0 min 14,7 C 17,7 C 0,0 km/h (0 Bft)
09.07.2021 11:00 16,4 C 21,2 C 17,0 C 17,7 C 17,7 C 1,3 C 89 % 91 % 1012,8 hPa 0,0 l/m 0,0 km/h (0 Bft) NO 45 0 min 14,6 C 17,7 C 0,0 km/h (0 Bft)
09.07.2021 11:05 16,5 C 21,2 C 16,9 C 17,7 C 17,7 C 1,2 C 89 % 91 % 1012,8 hPa 0,7 l/m 0,0 km/h (0 Bft) W-SW 247 0 min 14,7 C 17,7 C 0,0 km/h (0 Bft)
09.07.2021 11:10 16,5 C 21,2 C 16,9 C 17,6 C 17,6 C 1,1 C 89 % 90 % 1012,8 hPa 0,0 l/m 0,0 km/h (0 Bft) SO 135 0 min 14,7 C 17,6 C 0,0 km/h (0 Bft)
09.07.2021 11:15 16,4 C 21,2 C 16,9 C 17,5 C 17,5 C 1,1 C 89 % 91 % 1012,9 hPa 0,0 l/m 0,0 km/h (0 Bft) O-SO 112 0 min 14,6 C 17,5 C 1,6 km/h (1 Bft)
09.07.2021 11:20 16,4 C 21,2 C 16,9 C 17,5 C 17,5 C 1,1 C 89 % 90 % 1012,9 hPa 0,0 l/m 0,0 km/h (0 Bft) O-SO 112 0 min 14,6 C 17,5 C 0,0 km/h (0 Bft)
09.07.2021 11:25 16,4 C 21,2 C 16,9 C 17,4 C 17,4 C 1,0 C 89 % 90 % 1012,9 hPa 0,7 l/m 0,3 km/h (0 Bft) O-NO 67 0 min 14,6 C 17,4 C 0,0 km/h (0 Bft)
09.07.2021 11:30 16,4 C 21,2 C 16,9 C 17,4 C 17,4 C 1,0 C 89 % 90 % 1012,9 hPa 0,0 l/m 0,5 km/h (0 Bft) S 180 0 min 14,6 C 17,4 C 2,1 km/h (1 Bft)
09.07.2021 11:35 16,4 C 21,2 C 17,0 C 17,6 C 17,6 C 1,2 C 89 % 90 % 1013,2 hPa 0,0 l/m 0,2 km/h (0 Bft) SW 225 0 min 14,6 C 17,6 C 0,0 km/h (0 Bft)
09.07.2021 11:40 16,4 C 21,2 C 17,1 C 17,9 C 17,9 C 1,5 C 89 % 90 % 1013,2 hPa 0,0 l/m 0,2 km/h (0 Bft) SW 225 0 min 14,6 C 17,9 C 0,0 km/h (0 Bft)
09.07.2021 11:45 16,4 C 21,2 C 17,2 C 18,0 C 18,0 C 1,6 C 89 % 90 % 1013,2 hPa 0,0 l/m 0,0 km/h (0 Bft) S-SW 202 0 min 14,6 C 18,0 C 2,3 km/h (1 Bft)
09.07.2021 11:50 16,4 C 21,2 C 17,3 C 18,1 C 18,1 C 1,7 C 89 % 90 % 1013,2 hPa 0,0 l/m 0,2 km/h (0 Bft) S-SW 202 0 min 14,6 C 18,1 C 0,0 km/h (0 Bft)
09.07.2021 11:55 16,7 C 21,3 C 17,5 C 18,5 C 18,5 C 1,8 C 89 % 90 % 1013,0 hPa 0,0 l/m 0,2 km/h (0 Bft) N-NW 337 0 min 14,9 C 18,5 C 0,0 km/h (0 Bft)
09.07.2021 12:00 16,7 C 21,3 C 17,5 C 18,7 C 18,7 C 2,0 C 89 % 90 % 1013,0 hPa 0,0 l/m 0,0 km/h (0 Bft) SW 225 0 min 14,9 C 18,7 C 0,0 km/h (0 Bft)
09.07.2021 12:05 16,7 C 21,3 C 17,6 C 18,8 C 18,8 C 2,1 C 89 % 90 % 1013,0 hPa 0,0 l/m 0,0 km/h (0 Bft) S-SW 202 0 min 14,9 C 18,8 C 0,0 km/h (0 Bft)
09.07.2021 12:10 16,7 C 21,3 C 17,6 C 18,8 C 18,8 C 2,1 C 89 % 90 % 1013,0 hPa 0,0 l/m 0,0 km/h (0 Bft) SW 225 0 min 14,9 C 18,8 C 0,0 km/h (0 Bft)
09.07.2021 12:15 16,7 C 21,3 C 17,5 C 18,6 C 18,6 C 1,9 C 89 % 90 % 1013,1 hPa 0,0 l/m 0,2 km/h (0 Bft) SW 225 0 min 14,9 C 18,6 C 1,9 km/h (1 Bft)
09.07.2021 12:20 16,7 C 21,3 C 17,5 C 18,4 C 18,4 C 1,7 C 89 % 90 % 1013,1 hPa 0,0 l/m 0,2 km/h (0 Bft) S 180 0 min 14,9 C 18,4 C 0,0 km/h (0 Bft)
09.07.2021 12:25 16,6 C 21,3 C 17,4 C 18,1 C 18,1 C 1,5 C 89 % 91 % 1013,1 hPa 0,0 l/m 0,2 km/h (0 Bft) SW 225 0 min 14,8 C 18,1 C 1,6 km/h (1 Bft)
09.07.2021 12:30 16,7 C 21,3 C 17,3 C 17,9 C 17,9 C 1,2 C 89 % 91 % 1013,1 hPa 0,0 l/m 0,2 km/h (0 Bft) SW 225 0 min 14,9 C 17,9 C 1,6 km/h (1 Bft)
09.07.2021 12:35 16,5 C 21,3 C 17,3 C 17,8 C 17,8 C 1,3 C 89 % 91 % 1012,9 hPa 0,0 l/m 0,5 km/h (0 Bft) W-SW 247 0 min 14,7 C 17,8 C 0,0 km/h (0 Bft)
09.07.2021 12:40 16,5 C 21,3 C 17,3 C 17,8 C 17,8 C 1,3 C 89 % 91 % 1012,9 hPa 0,0 l/m 0,8 km/h (0 Bft) SW 225 0 min 14,7 C 17,8 C 1,8 km/h (1 Bft)
09.07.2021 12:45 16,4 C 21,3 C 17,2 C 17,7 C 17,7 C 1,3 C 89 % 91 % 1012,9 hPa 0,0 l/m 0,8 km/h (0 Bft) W-SW 247 0 min 14,6 C 17,7 C 0,0 km/h (0 Bft)
09.07.2021 12:50 16,4 C 21,3 C 17,2 C 17,7 C 17,7 C 1,3 C 89 % 91 % 1012,9 hPa 0,0 l/m 0,8 km/h (0 Bft) W-SW 247 0 min 14,6 C 17,7 C 0,0 km/h (0 Bft)
09.07.2021 12:55 16,4 C 21,3 C 17,2 C 17,7 C 17,7 C 1,3 C 89 % 91 % 1012,9 hPa 0,0 l/m 0,6 km/h (0 Bft) W-SW 247 0 min 14,6 C 17,7 C 0,0 km/h (0 Bft)
09.07.2021 13:00 16,3 C 21,3 C 17,1 C 17,7 C 17,7 C 1,4 C 89 % 91 % 1012,9 hPa 0,0 l/m 1,1 km/h (1 Bft) W-SW 247 0 min 14,5 C 17,7 C 3,5 km/h (1 Bft)
09.07.2021 13:05 16,3 C 21,3 C 17,1 C 17,6 C 17,6 C 1,3 C 89 % 91 % 1012,9 hPa 0,0 l/m 2,3 km/h (1 Bft) S 180 0 min 14,5 C 17,6 C 6,4 km/h (2 Bft)
09.07.2021 13:10 16,1 C 21,3 C 17,0 C 17,5 C 17,5 C 1,4 C 89 % 91 % 1012,9 hPa 0,0 l/m 2,4 km/h (1 Bft) W 270 0 min 14,3 C 17,5 C 2,7 km/h (1 Bft)
09.07.2021 13:15 16,1 C 21,3 C 16,9 C 17,4 C 17,4 C 1,3 C 89 % 91 % 1013,3 hPa 0,0 l/m 2,4 km/h (1 Bft) SW 225 0 min 14,3 C 17,4 C 3,9 km/h (1 Bft)
09.07.2021 13:20 15,9 C 21,3 C 16,8 C 17,2 C 17,2 C 1,3 C 89 % 91 % 1013,3 hPa 0,0 l/m 2,4 km/h (1 Bft) S 180 0 min 14,1 C 17,2 C 6,4 km/h (2 Bft)
09.07.2021 13:25 15,7 C 21,3 C 16,7 C 17,0 C 17,0 C 1,3 C 89 % 91 % 1013,3 hPa 0,0 l/m 2,7 km/h (1 Bft) W 270 0 min 13,9 C 17,0 C 5,3 km/h (1 Bft)
09.07.2021 13:30 15,6 C 21,3 C 16,7 C 17,0 C 17,0 C 1,4 C 89 % 91 % 1013,3 hPa 0,7 l/m 2,6 km/h (1 Bft) W-SW 247 0 min 13,8 C 17,0 C 2,9 km/h (1 Bft)
09.07.2021 13:35 15,5 C 21,2 C 16,7 C 17,1 C 17,1 C 1,6 C 89 % 91 % 1013,6 hPa 0,0 l/m 2,6 km/h (1 Bft) W-NW 292 0 min 13,7 C 17,1 C 8,0 km/h (2 Bft)
09.07.2021 13:40 15,5 C 21,2 C 16,4 C 16,8 C 16,8 C 1,3 C 89 % 91 % 1013,6 hPa 0,0 l/m 3,2 km/h (1 Bft) W-SW 247 0 min 13,7 C 16,8 C 5,0 km/h (1 Bft)
09.07.2021 13:45 15,1 C 21,3 C 16,1 C 16,5 C 16,5 C 1,4 C 89 % 91 % 1013,6 hPa 0,0 l/m 4,0 km/h (1 Bft) SW 225 0 min 13,3 C 16,5 C 9,7 km/h (2 Bft)
09.07.2021 13:50 14,7 C 21,3 C 15,9 C 16,2 C 16,2 C 1,5 C 88 % 92 % 1013,6 hPa 0,0 l/m 4,3 km/h (1 Bft) SW 225 0 min 12,7 C 16,2 C 6,8 km/h (2 Bft)
09.07.2021 13:55 14,4 C 21,2 C 15,5 C 15,8 C 15,8 C 1,4 C 88 % 92 % 1013,5 hPa 0,0 l/m 4,5 km/h (1 Bft) SW 225 0 min 12,4 C 15,8 C 4,0 km/h (1 Bft)
09.07.2021 14:00 14,3 C 21,2 C 15,4 C 15,6 C 15,6 C 1,3 C 88 % 92 % 1013,5 hPa 0,0 l/m 4,3 km/h (1 Bft) SW 225 0 min 12,3 C 15,6 C 3,1 km/h (1 Bft)
09.07.2021 14:05 14,0 C 21,2 C 15,3 C 15,4 C 15,4 C 1,4 C 88 % 92 % 1013,5 hPa 0,0 l/m 3,5 km/h (1 Bft) SW 225 0 min 12,0 C 15,4 C 4,8 km/h (1 Bft)
09.07.2021 14:10 13,9 C 21,2 C 15,1 C 15,3 C 15,3 C 1,4 C 88 % 92 % 1013,5 hPa 0,0 l/m 3,4 km/h (1 Bft) W-SW 247 0 min 11,9 C 15,3 C 5,8 km/h (2 Bft)
09.07.2021 14:15 13,6 C 21,2 C 15,0 C 15,3 C 15,3 C 1,7 C 88 % 92 % 1013,6 hPa 0,0 l/m 3,9 km/h (1 Bft) SW 225 0 min 11,6 C 15,3 C 3,1 km/h (1 Bft)
09.07.2021 14:20 13,6 C 21,2 C 15,0 C 15,3 C 15,3 C 1,7 C 88 % 92 % 1013,6 hPa 0,0 l/m 4,5 km/h (1 Bft) W-SW 247 0 min 11,6 C 15,3 C 3,9 km/h (1 Bft)
09.07.2021 14:25 13,4 C 21,1 C 14,7 C 15,7 C 15,7 C 2,3 C 88 % 92 % 1013,6 hPa 0,0 l/m 5,0 km/h (1 Bft) W-NW 292 0 min 11,5 C 15,7 C 13,4 km/h (3 Bft)
09.07.2021 14:30 13,3 C 21,1 C 14,8 C 15,9 C 15,9 C 2,6 C 88 % 92 % 1013,6 hPa 0,0 l/m 4,8 km/h (1 Bft) W-SW 247 0 min 11,4 C 15,9 C 4,2 km/h (1 Bft)
09.07.2021 14:35 13,3 C 21,1 C 14,7 C 16,2 C 16,2 C 2,9 C 88 % 92 % 1013,8 hPa 0,0 l/m 4,5 km/h (1 Bft) S-SW 202 0 min 11,4 C 16,2 C 7,1 km/h (2 Bft)
09.07.2021 14:40 13,2 C 21,1 C 14,7 C 16,2 C 16,2 C 3,0 C 88 % 92 % 1013,8 hPa 0,0 l/m 4,8 km/h (1 Bft) W-SW 247 0 min 11,3 C 16,2 C 7,9 km/h (2 Bft)
09.07.2021 14:45 13,3 C 21,1 C 14,7 C 16,0 C 16,0 C 2,7 C 88 % 92 % 1013,8 hPa 0,0 l/m 3,9 km/h (1 Bft) W 270 0 min 11,4 C 16,0 C 5,8 km/h (2 Bft)
09.07.2021 14:50 13,3 C 21,0 C 14,7 C 15,9 C 15,9 C 2,6 C 88 % 92 % 1013,8 hPa 0,0 l/m 3,7 km/h (1 Bft) S-SW 202 0 min 11,4 C 15,9 C 6,9 km/h (2 Bft)
09.07.2021 14:55 13,2 C 21,0 C 14,6 C 15,8 C 15,8 C 2,6 C 88 % 92 % 1014,1 hPa 0,0 l/m 4,2 km/h (1 Bft) SW 225 0 min 11,3 C 15,8 C 6,1 km/h (2 Bft)
09.07.2021 15:00 13,2 C 21,0 C 14,6 C 15,7 C 15,7 C 2,5 C 88 % 92 % 1014,1 hPa 0,0 l/m 4,7 km/h (1 Bft) S-SW 202 0 min 11,3 C 15,7 C 6,6 km/h (2 Bft)
09.07.2021 15:05 13,1 C 21,0 C 14,4 C 15,3 C 15,3 C 2,2 C 88 % 92 % 1014,1 hPa 0,0 l/m 4,7 km/h (1 Bft) W 270 0 min 11,2 C 15,3 C 3,2 km/h (1 Bft)
09.07.2021 15:10 13,0 C 21,0 C 14,5 C 15,3 C 15,3 C 2,3 C 88 % 92 % 1014,1 hPa 0,0 l/m 4,7 km/h (1 Bft) S 180 0 min 11,1 C 15,3 C 4,8 km/h (1 Bft)
09.07.2021 15:15 13,0 C 20,9 C 14,3 C 15,1 C 15,1 C 2,1 C 88 % 92 % 1014,0 hPa 0,0 l/m 4,7 km/h (1 Bft) SW 225 0 min 11,1 C 15,1 C 18,2 km/h (3 Bft)
09.07.2021 15:20 12,9 C 20,9 C 14,3 C 15,0 C 15,0 C 2,1 C 88 % 92 % 1014,0 hPa 0,0 l/m 5,0 km/h (1 Bft) SW 225 0 min 11,0 C 15,0 C 5,1 km/h (1 Bft)
09.07.2021 15:25 12,8 C 20,9 C 14,2 C 14,9 C 14,9 C 2,1 C 88 % 92 % 1014,0 hPa 0,0 l/m 5,3 km/h (1 Bft) SW 225 0 min 10,9 C 14,9 C 7,2 km/h (2 Bft)
09.07.2021 15:30 12,8 C 20,9 C 14,1 C 14,7 C 14,7 C 1,9 C 88 % 92 % 1014,0 hPa 0,0 l/m 5,0 km/h (1 Bft) SO 135 0 min 10,9 C 14,7 C 6,9 km/h (2 Bft)
09.07.2021 15:35 12,8 C 20,8 C 14,2 C 14,7 C 14,7 C 1,9 C 88 % 92 % 1014,2 hPa 0,0 l/m 3,7 km/h (1 Bft) S-SW 202 0 min 10,9 C 14,7 C 7,2 km/h (2 Bft)
09.07.2021 15:40 12,8 C 20,8 C 14,1 C 14,6 C 14,6 C 1,8 C 88 % 92 % 1014,2 hPa 0,0 l/m 3,9 km/h (1 Bft) S-SW 202 0 min 10,9 C 14,6 C 8,0 km/h (2 Bft)
09.07.2021 15:45 12,8 C 20,8 C 14,1 C 14,6 C 14,6 C 1,8 C 88 % 92 % 1014,2 hPa 0,0 l/m 4,0 km/h (1 Bft) S-SW 202 0 min 10,9 C 14,6 C 2,1 km/h (1 Bft)
09.07.2021 15:50 12,9 C 20,8 C 14,2 C 14,6 C 14,6 C 1,7 C 88 % 92 % 1014,2 hPa 0,0 l/m 3,7 km/h (1 Bft) SW 225 0 min 11,0 C 14,6 C 6,4 km/h (2 Bft)
09.07.2021 15:55 12,9 C 20,8 C 14,2 C 14,6 C 14,6 C 1,7 C 88 % 92 % 1014,5 hPa 0,0 l/m 3,5 km/h (1 Bft) S 180 0 min 11,0 C 14,6 C 4,5 km/h (1 Bft)
09.07.2021 16:00 12,9 C 20,8 C 14,2 C 14,5 C 14,5 C 1,6 C 88 % 92 % 1014,5 hPa 0,0 l/m 3,9 km/h (1 Bft) S 180 0 min 11,0 C 14,5 C 2,9 km/h (1 Bft)
09.07.2021 16:05 12,9 C 20,8 C 14,1 C 14,4 C 14,4 C 1,5 C 88 % 92 % 1014,5 hPa 0,0 l/m 3,7 km/h (1 Bft) W-SW 247 0 min 11,0 C 14,4 C 2,1 km/h (1 Bft)
09.07.2021 16:10 12,9 C 20,7 C 14,2 C 14,5 C 14,5 C 1,6 C 88 % 92 % 1014,5 hPa 0,0 l/m 3,5 km/h (1 Bft) S-SO 157 0 min 11,0 C 14,5 C 3,1 km/h (1 Bft)
09.07.2021 16:15 12,9 C 20,7 C 14,1 C 14,5 C 14,5 C 1,6 C 88 % 92 % 1014,8 hPa 0,0 l/m 3,2 km/h (1 Bft) S-SW 202 0 min 11,0 C 14,5 C 3,2 km/h (1 Bft)
09.07.2021 16:20 12,9 C 20,7 C 14,1 C 14,4 C 14,4 C 1,5 C 88 % 92 % 1014,8 hPa 0,0 l/m 3,7 km/h (1 Bft) SW 225 0 min 11,0 C 14,4 C 4,5 km/h (1 Bft)
09.07.2021 16:25 12,8 C 20,7 C 13,9 C 14,2 C 14,2 C 1,4 C 88 % 92 % 1014,8 hPa 0,0 l/m 4,0 km/h (1 Bft) S-SO 157 0 min 10,9 C 14,2 C 4,2 km/h (1 Bft)
09.07.2021 16:30 12,7 C 20,7 C 13,9 C 14,1 C 14,1 C 1,4 C 88 % 92 % 1014,8 hPa 0,0 l/m 4,0 km/h (1 Bft) S-SW 202 0 min 10,8 C 14,1 C 5,0 km/h (1 Bft)
09.07.2021 16:35 12,6 C 20,6 C 13,7 C 14,0 C 14,0 C 1,4 C 88 % 92 % 1014,8 hPa 0,0 l/m 3,9 km/h (1 Bft) W 270 0 min 10,7 C 14,0 C 6,6 km/h (2 Bft)
09.07.2021 16:40 12,5 C 20,6 C 13,7 C 13,9 C 13,9 C 1,4 C 88 % 92 % 1014,8 hPa 0,0 l/m 3,7 km/h (1 Bft) W-SW 247 0 min 10,6 C 13,9 C 3,7 km/h (1 Bft)
09.07.2021 16:45 12,5 C 20,6 C 13,6 C 13,8 C 13,8 C 1,3 C 88 % 92 % 1014,8 hPa 0,7 l/m 3,9 km/h (1 Bft) SW 225 0 min 10,6 C 13,8 C 6,6 km/h (2 Bft)
09.07.2021 16:50 12,4 C 20,5 C 13,6 C 13,8 C 13,8 C 1,4 C 88 % 92 % 1014,8 hPa 0,0 l/m 3,5 km/h (1 Bft) W-SW 247 0 min 10,5 C 13,8 C 3,9 km/h (1 Bft)
09.07.2021 16:55 12,5 C 20,5 C 13,7 C 13,8 C 13,8 C 1,3 C 88 % 92 % 1015,0 hPa 0,0 l/m 3,5 km/h (1 Bft) S-SO 157 0 min 10,6 C 13,8 C 5,0 km/h (1 Bft)
09.07.2021 17:00 12,5 C 20,5 C 13,7 C 13,8 C 13,8 C 1,3 C 88 % 92 % 1015,0 hPa 0,7 l/m 3,7 km/h (1 Bft) SW 225 0 min 10,6 C 13,8 C 3,7 km/h (1 Bft)
09.07.2021 17:05 12,7 C 20,5 C 13,7 C 13,9 C 13,9 C 1,2 C 88 % 92 % 1015,0 hPa 0,0 l/m 2,9 km/h (1 Bft) SW 225 0 min 10,8 C 13,9 C 2,1 km/h (1 Bft)
09.07.2021 17:10 12,6 C 20,5 C 13,8 C 14,0 C 14,0 C 1,4 C 88 % 92 % 1015,0 hPa 0,7 l/m 2,6 km/h (1 Bft) SW 225 0 min 10,7 C 14,0 C 1,9 km/h (1 Bft)
09.07.2021 17:15 12,7 C 20,5 C 13,9 C 14,2 C 14,2 C 1,5 C 88 % 92 % 1015,6 hPa 0,0 l/m 1,9 km/h (1 Bft) S-SW 202 0 min 10,8 C 14,2 C 2,3 km/h (1 Bft)
09.07.2021 17:20 12,8 C 20,5 C 13,9 C 14,3 C 14,3 C 1,5 C 88 % 92 % 1015,6 hPa 0,0 l/m 1,8 km/h (1 Bft) W-SW 247 0 min 10,9 C 14,3 C 3,9 km/h (1 Bft)
09.07.2021 17:25 12,9 C 20,5 C 13,9 C 14,3 C 14,3 C 1,4 C 88 % 92 % 1015,6 hPa 0,7 l/m 2,4 km/h (1 Bft) O-NO 67 0 min 11,0 C 14,3 C 4,3 km/h (1 Bft)
09.07.2021 17:30 12,9 C 20,4 C 13,9 C 14,3 C 14,3 C 1,4 C 88 % 92 % 1015,6 hPa 0,0 l/m 2,6 km/h (1 Bft) W-SW 247 0 min 11,0 C 14,3 C 2,9 km/h (1 Bft)
09.07.2021 17:35 12,9 C 20,4 C 13,9 C 14,3 C 14,3 C 1,4 C 88 % 92 % 1015,9 hPa 0,0 l/m 2,1 km/h (1 Bft) W-SW 247 0 min 11,0 C 14,3 C 2,1 km/h (1 Bft)
09.07.2021 17:40 12,8 C 20,4 C 13,9 C 14,2 C 14,2 C 1,4 C 88 % 92 % 1015,9 hPa 0,0 l/m 1,9 km/h (1 Bft) N-NW 337 0 min 10,9 C 14,2 C 2,3 km/h (1 Bft)
09.07.2021 17:45 12,7 C 20,4 C 13,9 C 14,1 C 14,1 C 1,4 C 88 % 92 % 1015,9 hPa 0,0 l/m 2,3 km/h (1 Bft) W 270 0 min 10,8 C 14,1 C 4,0 km/h (1 Bft)
09.07.2021 17:50 12,7 C 20,4 C 13,9 C 14,1 C 14,1 C 1,4 C 88 % 92 % 1015,9 hPa 0,0 l/m 2,4 km/h (1 Bft) W-SW 247 0 min 10,8 C 14,1 C 3,1 km/h (1 Bft)
09.07.2021 17:55 12,7 C 20,4 C 13,9 C 14,0 C 14,0 C 1,3 C 88 % 92 % 1016,2 hPa 0,0 l/m 2,3 km/h (1 Bft) S 180 0 min 10,8 C 14,0 C 3,4 km/h (1 Bft)
09.07.2021 18:00 12,7 C 20,4 C 13,9 C 14,1 C 14,1 C 1,4 C 88 % 92 % 1016,2 hPa 0,0 l/m 2,1 km/h (1 Bft) SW 225 0 min 10,8 C 14,1 C 1,6 km/h (1 Bft)
09.07.2021 18:05 12,7 C 20,4 C 13,9 C 14,1 C 14,1 C 1,4 C 88 % 92 % 1016,2 hPa 0,0 l/m 1,9 km/h (1 Bft) W-SW 247 0 min 10,8 C 14,1 C 2,6 km/h (1 Bft)
09.07.2021 18:10 12,7 C 20,4 C 13,9 C 14,0 C 14,0 C 1,3 C 88 % 92 % 1016,2 hPa 0,0 l/m 1,8 km/h (1 Bft) SW 225 0 min 10,8 C 14,0 C 2,3 km/h (1 Bft)
09.07.2021 18:15 12,7 C 20,4 C 13,9 C 14,0 C 14,0 C 1,3 C 88 % 92 % 1016,1 hPa 0,0 l/m 2,3 km/h (1 Bft) S-SW 202 0 min 10,8 C 14,0 C 1,9 km/h (1 Bft)
09.07.2021 18:20 12,7 C 20,4 C 13,8 C 13,9 C 13,9 C 1,2 C 88 % 92 % 1016,1 hPa 0,0 l/m 2,6 km/h (1 Bft) W 270 0 min 10,8 C 13,9 C 2,6 km/h (1 Bft)
09.07.2021 18:25 12,5 C 20,4 C 13,8 C 13,8 C 13,8 C 1,3 C 88 % 92 % 1016,1 hPa 0,0 l/m 2,4 km/h (1 Bft) S-SO 157 0 min 10,6 C 13,8 C 2,4 km/h (1 Bft)
09.07.2021 18:30 12,5 C 20,4 C 13,7 C 13,8 C 13,8 C 1,3 C 88 % 92 % 1016,1 hPa 0,0 l/m 2,4 km/h (1 Bft) SW 225 0 min 10,6 C 13,8 C 2,6 km/h (1 Bft)
09.07.2021 18:35 12,5 C 20,4 C 13,8 C 13,9 C 13,9 C 1,4 C 88 % 92 % 1016,2 hPa 0,0 l/m 1,9 km/h (1 Bft) W-SW 247 0 min 10,6 C 13,9 C 2,1 km/h (1 Bft)
09.07.2021 18:40 12,7 C 20,4 C 13,8 C 14,0 C 14,0 C 1,3 C 88 % 92 % 1016,2 hPa 0,0 l/m 2,1 km/h (1 Bft) SW 225 0 min 10,8 C 14,0 C 4,0 km/h (1 Bft)
09.07.2021 18:45 12,7 C 20,3 C 13,8 C 14,0 C 14,0 C 1,3 C 88 % 92 % 1016,2 hPa 0,0 l/m 2,4 km/h (1 Bft) SW 225 0 min 10,8 C 14,0 C 3,5 km/h (1 Bft)
09.07.2021 18:50 12,7 C 20,3 C 13,8 C 14,0 C 14,0 C 1,3 C 88 % 92 % 1016,2 hPa 0,0 l/m 2,1 km/h (1 Bft) S 180 0 min 10,8 C 14,0 C 1,6 km/h (1 Bft)
09.07.2021 18:55 12,7 C 20,3 C 13,9 C 14,0 C 14,0 C 1,3 C 88 % 92 % 1016,4 hPa 0,0 l/m 2,1 km/h (1 Bft) W-SW 247 0 min 10,8 C 14,0 C 2,3 km/h (1 Bft)
09.07.2021 19:00 12,6 C 20,3 C 13,9 C 14,0 C 14,0 C 1,4 C 88 % 92 % 1016,4 hPa 0,0 l/m 2,1 km/h (1 Bft) W-SW 247 0 min 10,7 C 14,0 C 1,9 km/h (1 Bft)
09.07.2021 19:05 12,6 C 20,3 C 13,8 C 14,0 C 14,0 C 1,4 C 88 % 91 % 1016,4 hPa 0,0 l/m 1,4 km/h (1 Bft) S 180 0 min 10,7 C 14,0 C 3,2 km/h (1 Bft)
09.07.2021 19:10 12,7 C 20,3 C 13,8 C 13,9 C 13,9 C 1,2 C 88 % 91 % 1016,4 hPa 0,0 l/m 1,3 km/h (1 Bft) SW 225 0 min 10,8 C 13,9 C 2,9 km/h (1 Bft)
09.07.2021 19:15 12,7 C 20,3 C 13,8 C 13,9 C 13,9 C 1,2 C 88 % 91 % 1016,8 hPa 0,0 l/m 1,8 km/h (1 Bft) SW 225 0 min 10,8 C 13,9 C 2,4 km/h (1 Bft)
09.07.2021 19:20 12,7 C 20,2 C 13,8 C 13,8 C 13,8 C 1,1 C 88 % 92 % 1016,8 hPa 0,0 l/m 2,3 km/h (1 Bft) W-SW 247 0 min 10,8 C 13,8 C 8,5 km/h (2 Bft)
09.07.2021 19:25 12,7 C 20,2 C 13,7 C 13,8 C 13,8 C 1,1 C 88 % 92 % 1016,8 hPa 0,0 l/m 2,4 km/h (1 Bft) SW 225 0 min 10,8 C 13,8 C 3,1 km/h (1 Bft)
09.07.2021 19:30 12,7 C 20,2 C 13,7 C 13,9 C 13,9 C 1,2 C 88 % 92 % 1016,8 hPa 0,0 l/m 1,9 km/h (1 Bft) SW 225 0 min 10,8 C 13,9 C 0,0 km/h (0 Bft)
09.07.2021 19:35 12,7 C 20,2 C 13,7 C 13,8 C 13,8 C 1,1 C 88 % 91 % 1016,7 hPa 0,7 l/m 1,6 km/h (1 Bft) W-SW 247 0 min 10,8 C 13,8 C 2,1 km/h (1 Bft)
09.07.2021 19:40 12,7 C 20,2 C 13,7 C 13,8 C 13,8 C 1,1 C 88 % 91 % 1016,7 hPa 0,0 l/m 1,4 km/h (1 Bft) S-SW 202 0 min 10,8 C 13,8 C 1,6 km/h (1 Bft)
09.07.2021 19:45 12,7 C 20,2 C 13,7 C 13,8 C 13,8 C 1,1 C 88 % 91 % 1016,7 hPa 0,0 l/m 1,1 km/h (1 Bft) SW 225 0 min 10,8 C 13,8 C 2,4 km/h (1 Bft)
09.07.2021 19:50 12,7 C 20,2 C 13,7 C 13,8 C 13,8 C 1,1 C 88 % 91 % 1016,7 hPa 0,0 l/m 1,0 km/h (0 Bft) SW 225 0 min 10,8 C 13,8 C 2,1 km/h (1 Bft)
09.07.2021 19:55 12,6 C 20,1 C 13,7 C 13,8 C 13,8 C 1,2 C 89 % 91 % 1016,7 hPa 0,0 l/m 0,8 km/h (0 Bft) SW 225 0 min 10,8 C 13,8 C 0,0 km/h (0 Bft)
09.07.2021 20:00 12,6 C 20,1 C 13,8 C 13,9 C 13,9 C 1,3 C 88 % 91 % 1016,7 hPa 0,0 l/m 0,6 km/h (0 Bft) W-SW 247 0 min 10,7 C 13,9 C 1,9 km/h (1 Bft)
09.07.2021 20:05 12,7 C 20,1 C 13,7 C 13,9 C 13,9 C 1,2 C 89 % 91 % 1016,7 hPa 0,0 l/m 0,6 km/h (0 Bft) SW 225 0 min 10,9 C 13,9 C 0,0 km/h (0 Bft)
09.07.2021 20:10 12,7 C 20,1 C 13,8 C 13,8 C 13,8 C 1,1 C 89 % 91 % 1016,7 hPa 0,0 l/m 1,0 km/h (0 Bft) W-SW 247 0 min 10,9 C 13,8 C 2,9 km/h (1 Bft)
09.07.2021 20:15 12,7 C 20,1 C 13,7 C 13,8 C 13,8 C 1,1 C 89 % 91 % 1017,0 hPa 0,0 l/m 1,1 km/h (1 Bft) SW 225 0 min 10,9 C 13,8 C 2,1 km/h (1 Bft)
09.07.2021 20:20 12,7 C 20,1 C 13,7 C 13,8 C 13,8 C 1,1 C 89 % 91 % 1017,0 hPa 0,0 l/m 1,3 km/h (1 Bft) W-SW 247 0 min 10,9 C 13,8 C 2,4 km/h (1 Bft)
09.07.2021 20:25 12,6 C 20,1 C 13,7 C 13,8 C 13,8 C 1,2 C 88 % 91 % 1017,0 hPa 0,0 l/m 1,6 km/h (1 Bft) S-SW 202 5 min 10,7 C 13,8 C 3,1 km/h (1 Bft)
09.07.2021 20:30 12,6 C 20,1 C 13,7 C 13,8 C 13,8 C 1,2 C 89 % 91 % 1017,0 hPa 0,0 l/m 1,8 km/h (1 Bft) SO 135 5 min 10,8 C 13,8 C 3,4 km/h (1 Bft)
09.07.2021 20:35 12,7 C 20,1 C 13,7 C 13,8 C 13,8 C 1,1 C 89 % 91 % 1017,2 hPa 0,0 l/m 1,8 km/h (1 Bft) S 180 5 min 10,9 C 13,8 C 2,6 km/h (1 Bft)
09.07.2021 20:40 12,7 C 20,1 C 13,7 C 13,8 C 13,8 C 1,1 C 89 % 91 % 1017,2 hPa 0,0 l/m 1,6 km/h (1 Bft) W-SW 247 5 min 10,9 C 13,8 C 1,9 km/h (1 Bft)
09.07.2021 20:45 12,6 C 20,0 C 13,6 C 13,8 C 13,8 C 1,2 C 89 % 91 % 1017,2 hPa 0,0 l/m 1,3 km/h (1 Bft) S 180 5 min 10,8 C 13,8 C 0,0 km/h (0 Bft)
09.07.2021 20:50 12,7 C 20,0 C 13,7 C 13,7 C 13,7 C 1,0 C 89 % 91 % 1017,2 hPa 0,0 l/m 1,0 km/h (0 Bft) S-SW 202 5 min 10,9 C 13,7 C 2,1 km/h (1 Bft)
09.07.2021 20:55 12,6 C 20,0 C 13,6 C 13,8 C 13,8 C 1,2 C 89 % 91 % 1017,0 hPa 0,0 l/m 1,1 km/h (1 Bft) SW 225 5 min 10,8 C 13,8 C 3,2 km/h (1 Bft)
09.07.2021 21:00 12,7 C 20,0 C 13,6 C 13,8 C 13,8 C 1,1 C 89 % 91 % 1017,0 hPa 0,0 l/m 1,4 km/h (1 Bft) S 180 5 min 10,9 C 13,8 C 0,0 km/h (0 Bft)
09.07.2021 21:05 12,7 C 20,0 C 13,6 C 13,8 C 13,8 C 1,1 C 89 % 91 % 1017,0 hPa 0,0 l/m 1,9 km/h (1 Bft) SW 225 5 min 10,9 C 13,8 C 3,9 km/h (1 Bft)
09.07.2021 21:10 12,7 C 20,0 C 13,7 C 13,8 C 13,8 C 1,1 C 89 % 91 % 1017,0 hPa 0,0 l/m 1,8 km/h (1 Bft) W 270 0 min 10,9 C 13,8 C 1,6 km/h (1 Bft)
09.07.2021 21:15 12,7 C 20,0 C 13,7 C 13,8 C 13,8 C 1,1 C 89 % 91 % 1017,2 hPa 0,0 l/m 1,8 km/h (1 Bft) W 270 0 min 10,9 C 13,8 C 2,7 km/h (1 Bft)
09.07.2021 21:20 12,7 C 20,0 C 13,7 C 13,8 C 13,8 C 1,1 C 89 % 91 % 1017,2 hPa 0,0 l/m 1,9 km/h (1 Bft) SW 225 0 min 10,9 C 13,8 C 2,7 km/h (1 Bft)
09.07.2021 21:25 12,7 C 20,0 C 13,7 C 13,8 C 13,8 C 1,1 C 89 % 91 % 1017,2 hPa 0,0 l/m 2,3 km/h (1 Bft) S 180 0 min 10,9 C 13,8 C 0,0 km/h (0 Bft)
09.07.2021 21:30 12,8 C 20,0 C 13,7 C 13,8 C 13,8 C 1,0 C 89 % 91 % 1017,2 hPa 0,0 l/m 1,9 km/h (1 Bft) W-NW 292 0 min 11,0 C 13,8 C 2,6 km/h (1 Bft)
09.07.2021 21:35 12,7 C 20,0 C 13,7 C 13,8 C 13,8 C 1,1 C 89 % 91 % 1017,6 hPa 0,0 l/m 1,1 km/h (1 Bft) SW 225 0 min 10,9 C 13,8 C 2,4 km/h (1 Bft)
09.07.2021 21:40 12,7 C 20,0 C 13,7 C 13,8 C 13,8 C 1,1 C 89 % 91 % 1017,6 hPa 0,0 l/m 1,4 km/h (1 Bft) W-SW 247 0 min 10,9 C 13,8 C 1,8 km/h (1 Bft)
09.07.2021 21:45 12,7 C 19,9 C 13,7 C 13,8 C 13,8 C 1,1 C 89 % 91 % 1017,6 hPa 0,0 l/m 1,4 km/h (1 Bft) SW 225 0 min 10,9 C 13,8 C 2,4 km/h (1 Bft)
09.07.2021 21:50 12,8 C 19,9 C 13,7 C 13,8 C 13,8 C 1,0 C 89 % 91 % 1017,6 hPa 0,0 l/m 1,1 km/h (1 Bft) S-SW 202 0 min 11,0 C 13,8 C 1,6 km/h (1 Bft)
09.07.2021 21:55 12,7 C 19,9 C 13,7 C 13,8 C 13,8 C 1,1 C 89 % 91 % 1017,4 hPa 0,0 l/m 1,1 km/h (1 Bft) SW 225 0 min 10,9 C 13,8 C 0,0 km/h (0 Bft)
09.07.2021 22:00 12,7 C 19,9 C 13,7 C 13,8 C 13,8 C 1,1 C 89 % 91 % 1017,4 hPa 0,0 l/m 1,3 km/h (1 Bft) SW 225 0 min 10,9 C 13,8 C 1,9 km/h (1 Bft)
09.07.2021 22:05 12,7 C 19,9 C 13,6 C 13,8 C 13,8 C 1,1 C 89 % 91 % 1017,4 hPa 0,7 l/m 1,6 km/h (1 Bft) W 270 0 min 10,9 C 13,8 C 1,8 km/h (1 Bft)
09.07.2021 22:10 12,7 C 19,9 C 13,6 C 13,8 C 13,8 C 1,1 C 89 % 91 % 1017,4 hPa 0,0 l/m 1,8 km/h (1 Bft) SW 225 0 min 10,9 C 13,8 C 1,6 km/h (1 Bft)
09.07.2021 22:15 12,8 C 19,9 C 13,6 C 13,8 C 13,8 C 1,0 C 89 % 91 % 1017,6 hPa 0,0 l/m 1,4 km/h (1 Bft) SW 225 0 min 11,0 C 13,8 C 2,3 km/h (1 Bft)
09.07.2021 22:20 12,8 C 19,9 C 13,6 C 13,8 C 13,8 C 1,0 C 89 % 91 % 1017,6 hPa 0,0 l/m 1,6 km/h (1 Bft) W-SW 247 0 min 11,0 C 13,8 C 0,0 km/h (0 Bft)
09.07.2021 22:25 12,7 C 19,9 C 13,6 C 13,8 C 13,8 C 1,1 C 89 % 91 % 1017,6 hPa 0,0 l/m 1,4 km/h (1 Bft) SW 225 0 min 10,9 C 13,8 C 0,0 km/h (0 Bft)
09.07.2021 22:30 12,7 C 19,9 C 13,6 C 13,8 C 13,8 C 1,1 C 89 % 91 % 1017,6 hPa 0,0 l/m 1,0 km/h (0 Bft) SW 225 0 min 10,9 C 13,8 C 0,0 km/h (0 Bft)
09.07.2021 22:35 12,8 C 19,8 C 13,6 C 13,8 C 13,8 C 1,0 C 89 % 91 % 1018,0 hPa 0,0 l/m 0,8 km/h (0 Bft) SW 225 0 min 11,0 C 13,8 C 0,0 km/h (0 Bft)
09.07.2021 22:40 12,7 C 19,8 C 13,6 C 13,8 C 13,8 C 1,1 C 89 % 91 % 1018,0 hPa 0,0 l/m 1,0 km/h (0 Bft) S 180 0 min 10,9 C 13,8 C 1,9 km/h (1 Bft)
09.07.2021 22:45 12,8 C 19,8 C 13,6 C 13,8 C 13,8 C 1,0 C 89 % 91 % 1018,0 hPa 0,0 l/m 1,0 km/h (0 Bft) S 180 0 min 11,0 C 13,8 C 2,1 km/h (1 Bft)
09.07.2021 22:50 12,7 C 19,8 C 13,6 C 13,8 C 13,8 C 1,1 C 89 % 91 % 1018,0 hPa 0,0 l/m 1,3 km/h (1 Bft) SW 225 0 min 10,9 C 13,8 C 2,1 km/h (1 Bft)
09.07.2021 22:55 12,7 C 19,8 C 13,5 C 13,7 C 13,7 C 1,0 C 89 % 91 % 1018,3 hPa 0,0 l/m 1,4 km/h (1 Bft) O-NO 67 0 min 10,9 C 13,7 C 1,8 km/h (1 Bft)
09.07.2021 23:00 12,7 C 19,8 C 13,5 C 13,7 C 13,7 C 1,0 C 89 % 91 % 1018,3 hPa 0,0 l/m 1,3 km/h (1 Bft) SW 225 0 min 10,9 C 13,7 C 2,6 km/h (1 Bft)
09.07.2021 23:05 12,7 C 19,8 C 13,6 C 13,7 C 13,7 C 1,0 C 89 % 91 % 1018,3 hPa 0,0 l/m 1,0 km/h (0 Bft) SW 225 0 min 10,9 C 13,7 C 1,9 km/h (1 Bft)
09.07.2021 23:10 12,6 C 19,8 C 13,6 C 13,6 C 13,6 C 1,0 C 89 % 91 % 1018,3 hPa 0,0 l/m 1,1 km/h (1 Bft) SW 225 0 min 10,8 C 13,6 C 1,8 km/h (1 Bft)
09.07.2021 23:15 12,7 C 19,8 C 13,5 C 13,6 C 13,6 C 0,9 C 89 % 91 % 1018,1 hPa 0,0 l/m 1,1 km/h (1 Bft) SW 225 0 min 10,9 C 13,6 C 0,0 km/h (0 Bft)
09.07.2021 23:20 12,7 C 19,8 C 13,5 C 13,6 C 13,6 C 0,9 C 89 % 91 % 1018,1 hPa 0,0 l/m 1,0 km/h (0 Bft) SW 225 0 min 10,9 C 13,6 C 1,8 km/h (1 Bft)
09.07.2021 23:25 12,7 C 19,7 C 13,5 C 13,6 C 13,6 C 0,9 C 89 % 91 % 1018,1 hPa 0,0 l/m 1,0 km/h (0 Bft) S-SW 202 0 min 10,9 C 13,6 C 1,9 km/h (1 Bft)
09.07.2021 23:30 12,7 C 19,7 C 13,5 C 13,6 C 13,6 C 0,9 C 89 % 91 % 1018,1 hPa 0,0 l/m 1,1 km/h (1 Bft) SW 225 0 min 10,9 C 13,6 C 0,0 km/h (0 Bft)
09.07.2021 23:35 12,5 C 19,7 C 13,5 C 13,5 C 13,5 C 1,0 C 89 % 91 % 1018,0 hPa 0,0 l/m 1,0 km/h (0 Bft) SW 225 0 min 10,7 C 13,5 C 0,0 km/h (0 Bft)
09.07.2021 23:40 12,5 C 19,7 C 13,5 C 13,5 C 13,5 C 1,0 C 89 % 91 % 1018,0 hPa 0,0 l/m 0,8 km/h (0 Bft) S 180 0 min 10,7 C 13,5 C 2,4 km/h (1 Bft)
09.07.2021 23:45 12,5 C 19,7 C 13,5 C 13,4 C 13,4 C 0,9 C 89 % 91 % 1018,0 hPa 0,0 l/m 0,6 km/h (0 Bft) SW 225 0 min 10,7 C 13,4 C 0,0 km/h (0 Bft)
09.07.2021 23:50 12,5 C 19,7 C 13,5 C 13,4 C 13,4 C 0,9 C 89 % 91 % 1018,0 hPa 0,0 l/m 0,6 km/h (0 Bft) W 270 0 min 10,7 C 13,4 C 0,0 km/h (0 Bft)
09.07.2021 23:55 12,5 C 19,7 C 13,4 C 13,4 C 13,4 C 0,9 C 89 % 92 % 1018,0 hPa 0,0 l/m 0,5 km/h (0 Bft) S 180 0 min 10,7 C 13,4 C 0,0 km/h (0 Bft)
_ Min-Zeit 16:50 23:25 23:55 23:45 23:45 02:45 00:00 09:40 10:15 - 00:00 - - - 16:50 23:45 00:00
Minimum _ 12,4 C 19,7 C 13,4 C 13,4 C 13,4 C 0,9 C 88 % 90 % 1012,8 hPa - 0,0 km/h (0 Bft) - - - 10,5 C 13,4 C 0,0 km/h (0 Bft)
_ Max-Zeit 10:20 09:45 12:05 12:05 12:05 14:40 06:55 01:50 22:55 06:05 15:25 - - 05:20 10:20 12:05 15:15
Maximum _ 16,7 C 21,4 C 17,6 C 18,8 C 18,8 C 3,0 C 89 % 92 % 1018,3 hPa 4,1 l/m 5,3 km/h
SW (1 Bft)
- - 5 min 14,9 C 18,8 C 18,2 km/h
SW (3 Bft)
Durchschnitt _ 14,6 C 20,8 C 15,6 C 16,0 C 16,0 C 1,3 C 88 % 91 % 1015,0 hPa #22,0 l/m 1,3 km/h (1 Bft) SW - #1:35 h 12,8 C 16,0 C 1,8 km/h (1 Bft)
2021 www.wetterstation-wechselburg.de